[[{"header":{"parameterUnit":"m.s-1","parameterCategory":1,"la1":30.2991,"la2":30.254,"lo1":-89.0895,"lo2":-89.0444,"dy":0.0017,"dx":0.0017,"nx":28,"ny":28,"refTime":"2025-06-14T21:00:00:Z","depth":0,"parameterNumber":2,"parameterNumberName":"U-component_of_WINDS"},"data":[0,0,0,0,0,0,0,0,0,0,0,0,0,0,0,0,0,0,0,0,0,0,0,0,0,0,0,0,0,0,0,0,0,0,0,0,0,0,0,0,0,0,0,0,0,0,0,0,0,0,0,0,0,0,0,0,0,0,2.9733,2.9737,0,3.0135,3.014,3.0144,3.0318,3.0318,3.0317,3.0316,3.073,3.0742,3.0753,0,0,0,0,0,0,0,0,0,0,0,0,0,2.9114,2.9124,2.9732,2.9737,2.9742,3.0134,3.014,3.0145,3.0318,3.0318,3.0317,3.0316,3.0727,3.074,3.0754,0,0,0,0,0,0,0,0,0,0,0,0,0,2.9436,2.9127,2.9731,2.9876,2.9893,3.0133,3.014,3.0147,3.0319,3.0318,3.0317,3.0316,3.0722,3.0739,3.0756,3.0884,0,0,3.081,3.0817,0,0,0,0,0,0,0,0,2.9417,2.9458,2.985,2.9866,2.9886,3.0175,3.0074,3.0394,3.0319,3.0157,3.0316,3.0315,3.0547,3.0578,3.0656,3.0903,3.0921,3.0811,3.0822,3.0829,3.0834,0,0,0,0,0,0,0,2.9395,2.9442,2.9892,2.9855,2.9877,2.9921,2.9965,3.0135,3.0353,3.0171,3.0185,3.023,3.0556,3.0639,3.0667,3.0927,3.0811,3.0826,3.0837,3.0844,3.1297,3.1298,0,0,0,0,0,0,2.9348,2.9422,2.9879,2.9904,2.9644,2.9932,2.9983,3.0083,3.0351,3.0391,3.023,3.0236,3.061,3.0647,3.0682,3.0849,3.0829,3.0845,3.0855,3.1295,3.1297,3.1299,0,0,0,0,0,0,2.9334,2.9388,2.9863,2.9667,2.9731,2.9944,3.0056,3.0092,3.0175,3.0396,3.0435,3.0275,3.061,3.0658,3.0832,3.0866,3.0853,3.0869,3.1293,3.1296,3.1298,3.1182,0,0,0,0,0,0,2.9316,2.9381,2.9432,2.9667,2.974,3.0005,3.0058,3.0101,3.0204,3.0216,3.0448,3.0486,3.0613,3.0805,3.0849,3.089,3.0883,3.1291,3.1294,3.1297,3.1184,3.118,3.1177,0,0,0,0,0,2.9293,2.9385,2.9434,2.9488,2.9808,3.0007,3.0049,3.0194,3.0206,3.0259,3.0401,3.0478,3.0854,3.0821,3.0873,3.0919,3.129,3.1293,3.1297,3.1186,3.1181,3.1177,0,0,0,0,0,0,2.915,2.9418,2.9476,2.9646,2.9802,3.0036,3.0107,3.0184,3.0341,3.0346,3.0519,3.057,3.0728,3.0841,3.08,3.1055,3.1078,3.1092,3.0976,3.0974,3.097,3.0941,3.0897,0,0,0,0,0,2.9138,2.9276,2.9503,2.9631,2.9706,2.9892,2.9984,3.0082,3.0251,3.0318,3.0473,3.0634,3.0789,3.0887,3.1042,3.12,3.1253,3.1257,3.1253,3.1249,3.126,3.1351,3.1355,3.131,3.131,3.131,0,0,2.9115,2.9279,2.9356,2.9606,2.9739,2.9878,2.9947,3.0092,3.0198,3.0341,3.0515,3.0632,3.0824,3.099,3.1071,3.1089,3.1283,3.1254,3.1249,3.1262,3.1355,3.1359,3.1362,3.1313,3.1312,3.1312,0,0,2.9145,2.9282,2.9404,2.9534,2.9733,2.9856,2.9884,3.0106,3.019,3.0367,3.0476,3.0603,3.0866,3.0998,3.1099,3.1174,3.1251,3.122,3.1202,3.1289,3.1292,3.1296,3.1323,3.1331,3.1229,3.1229,3.1229,0,2.9092,2.9307,2.9456,2.9595,2.9701,2.9835,2.9959,3.0079,3.0318,3.0388,3.0404,3.0735,3.0874,3.1072,3.109,3.1167,3.1205,3.1195,3.128,3.1285,3.1291,3.1319,3.1328,3.1224,3.1224,3.1225,3.1225,0,2.9231,2.9377,2.9451,2.9677,2.9792,2.9922,3.0091,3.019,3.0275,3.0396,3.0573,3.0743,3.0934,3.0987,3.1074,3.1197,3.1202,3.1246,3.1274,3.1288,3.1316,3.1328,3.1216,3.1218,3.122,3.1221,0,0,2.9186,2.949,2.9515,2.9618,2.9846,2.9962,3.0097,3.0283,3.0363,3.0523,3.0641,3.0858,3.09,3.1014,3.1116,3.1191,3.1239,3.1227,3.1234,3.1224,3.1385,3.1351,3.1361,3.129,3.1293,3.1295,3.1369,0,2.9247,2.9495,2.9632,2.9823,2.996,3.0087,3.0205,3.0357,3.0472,3.0605,3.0733,3.0884,3.0927,3.0997,3.1077,3.1216,3.1274,3.1213,3.1402,3.1407,3.1352,3.1376,3.1342,3.1404,3.1381,3.1383,3.1385,0,2.9353,2.9508,2.9712,2.9922,2.9984,3.0088,3.0268,3.0393,3.0567,3.0645,3.0771,3.0871,3.1018,3.1032,3.1236,3.1191,3.1276,3.1356,3.1362,3.1386,3.1398,3.1402,3.1427,3.1436,3.1404,3.1403,3.1401,0,2.9299,2.9559,2.9715,2.9799,3.0048,3.0117,3.0224,3.0398,3.0499,3.0656,3.0724,3.0895,3.0989,3.112,3.1263,3.126,3.1453,3.1479,3.1523,3.1519,3.156,3.1555,3.1599,3.1611,3.1611,3.1611,3.1611,0,2.9354,2.9474,2.9694,2.9789,2.9927,3.0082,3.0214,3.0331,3.0483,3.0604,3.0724,3.0834,3.1017,3.1149,3.1262,3.1414,3.1455,3.1523,3.1552,3.1513,3.1505,3.1573,3.1573,3.1614,3.1613,3.1613,3.1612,0,2.9319,2.947,2.9648,2.9868,2.9926,3.0017,3.0206,3.0303,3.0423,3.0573,3.0618,3.0806,3.0968,3.1124,3.1341,3.1417,3.1569,3.1606,3.1509,3.1526,3.1561,3.1555,3.1651,3.1672,3.1667,3.1667,3.1667,0,2.9344,2.9439,2.9668,2.9756,2.986,3.0002,3.0106,3.0261,3.0364,3.0568,3.0641,3.0811,3.0956,3.1209,3.1366,3.1532,3.1575,3.1597,3.1601,3.1558,3.1576,3.1569,3.1579,3.1593,3.1593,3.1592,3.1592,0,2.9374,2.9443,2.9588,2.9758,2.9878,3.002,3.0166,3.0231,3.0415,3.0524,3.0691,3.0803,3.1024,3.1192,3.1375,3.1486,3.1569,3.1588,3.1608,3.157,3.151,3.1543,3.1501,3.1586,3.1587,3.1587,3.1588,3.1588,2.9371,2.9461,2.9635,2.9791,2.9917,3.0049,3.0151,3.0282,3.0424,3.0615,3.0698,3.0866,3.1036,3.1291,3.14,3.1533,3.1553,3.1581,3.1588,3.1593,3.1584,3.1487,3.1567,3.1568,3.1568,3.1568,3.1569,0,2.9407,2.9525,2.9667,2.9866,2.9988,3.0054,3.0218,3.0317,3.0463,3.0614,3.0753,3.0943,3.1106,3.1273,3.1445,3.1519,3.1562,3.1559,3.1556,3.158,3.1557,3.1523,3.1522,3.1522,3.1522,3.1522,3.1522,3.1522,2.9441,2.9595,2.9685,2.9902,3.002,3.0184,3.0272,3.0395,3.0516,3.0723,3.0858,3.0965,3.1123,3.1307,3.1458,3.1503,3.1561,3.1548,3.1603,3.1579,3.1582,3.1584,3.1554,3.1559,3.1559,3.1616,3.1617,3.1617]},{"header":{"parameterUnit":"m.s-1","parameterCategory":1,"la1":30.2991,"la2":30.254,"lo1":-89.0895,"lo2":-89.0444,"dy":0.0017,"dx":0.0017,"nx":28,"ny":28,"refTime":"2025-06-14T21:00:00:Z","depth":0,"parameterNumber":3,"parameterNumberName":"V-component_of_WINDS"},"data":[0,0,0,0,0,0,0,0,0,0,0,0,0,0,0,0,0,0,0,0,0,0,0,0,0,0,0,0,0,0,0,0,0,0,0,0,0,0,0,0,0,0,0,0,0,0,0,0,0,0,0,0,0,0,0,0,0,0,2.18,2.1801,0,2.1964,2.1966,2.1968,2.212,2.2122,2.2123,2.2125,2.2293,2.2295,2.2298,0,0,0,0,0,0,0,0,0,0,0,0,0,2.1616,2.1619,2.1799,2.1801,2.1804,2.1964,2.1966,2.1968,2.2119,2.2122,2.2124,2.2126,2.2292,2.2295,2.2298,0,0,0,0,0,0,0,0,0,0,0,0,0,2.173,2.162,2.1799,2.1898,2.1909,2.1963,2.1966,2.1969,2.2119,2.2122,2.2124,2.2127,2.2291,2.2295,2.2299,2.2268,0,0,2.2311,2.2313,0,0,0,0,0,0,0,0,2.1723,2.1736,2.1882,2.1892,2.1903,2.2024,2.1963,2.2069,2.2118,2.2039,2.2125,2.2128,2.2201,2.2213,2.2237,2.2276,2.2283,2.2311,2.2314,2.2316,2.2317,0,0,0,0,0,0,0,2.1715,2.173,2.1865,2.1884,2.1897,2.1935,2.1954,2.1984,2.2102,2.2046,2.2058,2.2075,2.2207,2.2233,2.2242,2.2285,2.2311,2.2315,2.2317,2.2319,2.2309,2.2306,0,0,0,0,0,0,2.1692,2.1722,2.1859,2.187,2.1818,2.1936,2.1957,2.1983,2.2102,2.2123,2.2072,2.2081,2.2225,2.2237,2.2249,2.2222,2.2316,2.2319,2.2322,2.2312,2.2308,2.2305,0,0,0,0,0,0,2.1687,2.1703,2.1853,2.1799,2.1821,2.1936,2.1963,2.1984,2.201,2.2122,2.2144,2.2077,2.2227,2.2243,2.2263,2.223,2.2321,2.2325,2.2315,2.2311,2.2307,2.2167,0,0,0,0,0,0,2.1681,2.17,2.1689,2.1798,2.1823,2.1863,2.1961,2.1986,2.2017,2.203,2.2132,2.2152,2.2231,2.2256,2.2266,2.2237,2.2328,2.2318,2.2313,2.2308,2.2175,2.2158,2.2144,0,0,0,0,0,2.1674,2.1643,2.1688,2.1704,2.1812,2.1861,2.1876,2.1967,2.2013,2.2004,2.2076,2.2148,2.2232,2.2256,2.227,2.2241,2.2321,2.2315,2.2309,2.2182,2.2162,2.2145,0,0,0,0,0,0,2.1527,2.1659,2.171,2.1713,2.1775,2.1886,2.1877,2.1943,2.1993,2.2003,2.2115,2.2136,2.2143,2.2195,2.222,2.2219,2.2286,2.2282,2.2185,2.2167,2.2152,2.2139,2.2332,0,0,0,0,0,2.1495,2.1523,2.1637,2.1628,2.1657,2.1761,2.1786,2.1851,2.1919,2.1946,2.202,2.2083,2.2124,2.2148,2.2192,2.2183,2.2208,2.217,2.2155,2.2142,2.2137,2.2138,2.2123,2.2285,2.2285,2.2286,0,0,2.1428,2.1504,2.1515,2.1601,2.1656,2.1683,2.1782,2.1806,2.1828,2.195,2.1973,2.2029,2.2108,2.2113,2.2119,2.2156,2.2098,2.2134,2.2123,2.2126,2.213,2.2115,2.2101,2.2281,2.2282,2.2283,0,0,2.1322,2.1381,2.1382,2.1435,2.1519,2.1589,2.1588,2.169,2.1733,2.1758,2.1851,2.1878,2.1945,2.1998,2.2033,2.1947,2.2016,2.1958,2.1879,2.1878,2.1865,2.1854,2.1825,2.1813,2.1954,2.1953,2.1953,0,2.1229,2.1274,2.1373,2.1392,2.1427,2.154,2.1541,2.1589,2.1681,2.1703,2.1743,2.1831,2.1891,2.1911,2.189,2.1915,2.1919,2.1947,2.1859,2.1849,2.1841,2.1814,2.1802,2.1946,2.1947,2.1947,2.1948,0,2.1156,2.1185,2.1175,2.1263,2.1297,2.1306,2.1408,2.143,2.1493,2.1559,2.1584,2.166,2.1722,2.1732,2.1793,2.1761,2.1781,2.1838,2.1908,2.1816,2.1793,2.1783,2.1935,2.1938,2.194,2.1942,0,0,2.096,2.1103,2.1098,2.1139,2.124,2.1265,2.128,2.1341,2.1359,2.1419,2.1435,2.149,2.1544,2.1584,2.1653,2.1652,2.158,2.171,2.1714,2.1684,2.1551,2.1508,2.1494,2.1627,2.1625,2.1624,2.1545,0,2.087,2.0904,2.0995,2.1001,2.1031,2.1139,2.1152,2.1215,2.1277,2.1311,2.138,2.1418,2.1486,2.1511,2.1515,2.1588,2.1555,2.1595,2.1643,2.1644,2.162,2.1482,2.1436,2.1357,2.1536,2.1535,2.1534,0,2.077,2.0824,2.0833,2.0934,2.095,2.096,2.1024,2.1055,2.1129,2.1175,2.122,2.1296,2.1319,2.1383,2.1417,2.1442,2.1467,2.1506,2.1505,2.1513,2.1583,2.1487,2.1335,2.1323,2.152,2.1521,2.1522,0,2.0627,2.0702,2.0718,2.0751,2.0868,2.0873,2.0922,2.0999,2.103,2.1086,2.1108,2.1165,2.1197,2.1239,2.1329,2.1368,2.1353,2.1425,2.1392,2.139,2.1384,2.1383,2.1234,2.1399,2.1399,2.1399,2.1399,0,2.0518,2.0519,2.0656,2.0665,2.0671,2.0775,2.0778,2.0837,2.0905,2.0929,2.1026,2.1046,2.1163,2.1197,2.1267,2.1285,2.1298,2.1336,2.1355,2.1328,2.1323,2.1346,2.1354,2.1396,2.1397,2.1397,2.1398,0,2.0359,2.045,2.0475,2.0584,2.0612,2.0611,2.0705,2.0719,2.0787,2.0816,2.0829,2.0936,2.0981,2.1075,2.1145,2.1193,2.1194,2.1227,2.1169,2.1181,2.1143,2.1145,2.1004,2.0991,2.1162,2.116,2.1159,0,2.0283,2.0287,2.0397,2.042,2.0466,2.0501,2.0534,2.0637,2.0667,2.0753,2.0757,2.0809,2.0857,2.0924,2.1008,2.1063,2.1099,2.1046,2.1108,2.1081,2.1099,2.1098,2.11,2.1032,2.1029,2.1027,2.1026,0,2.014,2.0185,2.0229,2.0288,2.0325,2.0377,2.0434,2.0447,2.0564,2.0593,2.064,2.0677,2.075,2.0801,2.0869,2.092,2.0992,2.1005,2.1001,2.0974,2.094,2.0959,2.1132,2.1008,2.101,2.1011,2.1012,2.1013,2.0022,2.0031,2.011,2.0156,2.021,2.0261,2.028,2.0351,2.0392,2.046,2.0518,2.056,2.0636,2.0735,2.0781,2.0817,2.0852,2.0845,2.0844,2.084,2.0829,2.0934,2.0829,2.083,2.083,2.0831,2.0831,0,1.9884,1.9941,1.9982,2.0059,2.0095,2.016,2.0227,2.0253,2.0289,2.0354,2.0399,2.0454,2.0505,2.0593,2.0652,2.0663,2.0698,2.0675,2.0676,2.0687,2.0794,2.0792,2.0646,2.0646,2.0646,2.0646,2.0646,2.0646,1.9817,1.9836,1.9891,1.9938,1.9996,2.0038,2.0071,2.0119,2.0172,2.0229,2.0271,2.0329,2.0404,2.0469,2.0519,2.0544,2.0561,2.0528,2.0563,2.0661,2.0679,2.0695,2.0695,2.053,2.053,2.0454,2.0453,2.0452]}]]